Location: Unspecified
(0.0000°N, 0.0000°E)
Time: 19:36:12
(UTC+00:00)

Vanguard 1 Rocket - Pass Details

Date: 24 April 2026
Orbit: 655 x 4212 km, 34.3° (Epoch: 17 May)

Event Time Altitude Azimuth Distance (km) Brightness Sun altitude
Rises 21:00:46 0° 289° (WNW) 7,327 12.8 -44.2°
Reaches altitude 10° 21:07:27 10° 302° (WNW) 6,786 12.4 -45.7°
Maximum altitude 21:24:58 23° 349° (N) 6,273 11.7 -49.9°
Drops below altitude 10° 21:43:14 10° 36° (NE) 6,995 11.7 -54.1°
Sets 21:50:28 0° 50° (NE) 7,575 11.9 -55.8°
